TimeCST,TemperatureF,Dew PointF,Humidity,Sea Level PressureIn,VisibilityMPH,Wind Direction,Wind SpeedMPH,Gust SpeedMPH,PrecipitationIn,Events,Conditions,WindDirDegrees,DateUTC
12:53 AM,36.0,30.0,79,30.14,6.0,SW,12.7,-,N/A,,Haze,220,2013-01-06 06:53:00
1:53 AM,36.0,30.0,79,30.13,7.0,SW,11.5,-,N/A,,Overcast,220,2013-01-06 07:53:00
2:53 AM,35.1,30.0,82,30.12,6.0,SSW,10.4,-,N/A,,Haze,210,2013-01-06 08:53:00
3:53 AM,35.1,30.9,85,30.10,5.0,SSW,10.4,-,N/A,,Overcast,210,2013-01-06 09:53:00
4:53 AM,34.0,30.0,85,30.08,5.0,SSW,8.1,-,N/A,,Mostly Cloudy,210,2013-01-06 10:53:00
5:53 AM,33.1,28.9,85,30.10,5.0,SSW,8.1,-,N/A,,Clear,200,2013-01-06 11:53:00
6:53 AM,35.1,30.0,82,30.11,6.0,SW,10.4,-,N/A,,Haze,220,2013-01-06 12:53:00
7:53 AM,36.0,30.9,82,30.13,5.0,WSW,9.2,-,N/A,,Haze,240,2013-01-06 13:53:00
8:15 AM,35.6,26.6,70,30.14,6.0,WNW,16.1,25.3,N/A,,Haze,300,2013-01-06 14:15:00
8:27 AM,35.6,26.6,70,30.14,6.0,NW,12.7,-,N/A,,Haze,310,2013-01-06 14:27:00
8:53 AM,35.1,26.1,70,30.16,6.0,WNW,12.7,-,N/A,,Haze,300,2013-01-06 14:53:00
9:53 AM,35.1,26.1,70,30.18,6.0,WNW,13.8,-,N/A,,Haze,290,2013-01-06 15:53:00
10:53 AM,35.1,25.0,67,30.19,6.0,WNW,18.4,-,N/A,,Haze,300,2013-01-06 16:53:00
11:42 AM,33.8,24.8,70,30.18,6.0,WNW,20.7,-,N/A,,Haze,300,2013-01-06 17:42:00
11:53 AM,33.1,24.1,70,30.19,6.0,WNW,20.7,-,N/A,,Haze,300,2013-01-06 17:53:00
12:53 PM,32.0,23.0,69,30.22,4.0,WNW,18.4,-,N/A,,Haze,300,2013-01-06 18:53:00
1:53 PM,32.0,23.0,69,30.25,4.0,NW,18.4,25.3,N/A,,Haze,310,2013-01-06 19:53:00
2:34 PM,32.0,23.0,69,30.25,4.0,WNW,13.8,-,N/A,,Haze,300,2013-01-06 20:34:00
2:53 PM,32.0,21.9,66,30.28,4.0,WNW,13.8,-,N/A,,Haze,300,2013-01-06 20:53:00
3:43 PM,30.2,21.2,69,30.30,5.0,NW,17.3,-,N/A,,Haze,320,2013-01-06 21:43:00
3:53 PM,30.9,21.9,69,30.32,5.0,NW,17.3,-,N/A,,Haze,310,2013-01-06 21:53:00
4:53 PM,30.0,21.9,72,30.35,6.0,NW,9.2,-,N/A,,Haze,310,2013-01-06 22:53:00
5:53 PM,28.9,21.0,72,30.37,8.0,WNW,5.8,-,N/A,,Mostly Cloudy,290,2013-01-06 23:53:00
6:53 PM,28.0,19.9,72,30.38,8.0,West,3.5,-,N/A,,Mostly Cloudy,270,2013-01-07 00:53:00
7:53 PM,26.1,19.9,78,30.41,7.0,West,4.6,-,N/A,,Mostly Cloudy,270,2013-01-07 01:53:00
8:05 PM,24.8,19.4,80,30.40,7.0,WNW,3.5,-,N/A,,Scattered Clouds,290,2013-01-07 02:05:00
8:53 PM,21.9,19.0,89,30.42,6.0,Calm,Calm,-,N/A,,Clear,0,2013-01-07 02:53:00
9:53 PM,21.0,18.0,88,30.42,5.0,Calm,Calm,-,N/A,,Clear,0,2013-01-07 03:53:00
10:10 PM,17.6,15.8,93,30.41,2.5,Calm,Calm,-,N/A,,Clear,0,2013-01-07 04:10:00
10:18 PM,17.6,14.0,86,30.41,1.0,Calm,Calm,-,N/A,,Clear,0,2013-01-07 04:18:00
10:25 PM,19.4,15.8,86,30.41,0.5,Calm,Calm,-,N/A,Fog,Light Freezing Fog,0,2013-01-07 04:25:00
10:53 PM,14.0,10.9,88,30.43,0.2,Calm,Calm,-,N/A,Fog,Light Freezing Fog,0,2013-01-07 04:53:00
11:24 PM,12.2,10.4,92,30.41,0.2,SE,3.5,-,N/A,Fog,Light Freezing Fog,140,2013-01-07 05:24:00
11:53 PM,15.1,12.9,91,30.43,0.2,SSW,4.6,-,N/A,Fog,Light Freezing Fog,200,2013-01-07 05:53:00